Location: Alincthun
(50.7310°N, 1.8022°E)
Time: 16:24:16
(UTC+00:00)

Cosmos 1500 Rocket - Pass Details

Date: 17 February 2020
Orbit: 602 x 632 km, 82.5° (Epoch: 31 March)

Event Time Altitude Azimuth Distance (km) Brightness Sun altitude
Rises 04:54:00 0° 349° (N) 2,935 7.0 -20.9°
Reaches altitude 10° 04:56:16 10° 350° (N) 2,019 6.1 -20.5°
Maximum altitude 05:00:45 87° 79° (ENE) 634 3.5 -19.8°
Drops below altitude 10° 05:05:10 10° 170° (S) 1,986 6.2 -19.1°
Sets 05:07:22 0° 171° (S) 2,882 7.1 -18.8°
